Location: El Álamo
(40.2307°N, 3.9945°W)
Time: 03:21:09
(UTC+00:00)

Okean-O - Pass Details

Date: 19 May 2025
Orbit: 628 x 631 km, 98.0° (Epoch: 22 June)

Event Time Altitude Azimuth Distance (km) Brightness Sun altitude
Exits shadow 21:41:08 19° 209° (SSW) 1,507 4.3 -20.2°
Maximum altitude 21:43:39 34° 263° (W) 1,049 4.0 -20.5°
Drops below altitude 10° 21:47:39 10° 328° (NNW) 2,019 6.4 -21.0°
Sets 21:50:01 0° 338° (NNW) 2,931 7.4 -21.3°
